TimeEST,TemperatureF,Dew PointF,Humidity,Sea Level PressureIn,VisibilityMPH,Wind Direction,Wind SpeedMPH,Gust SpeedMPH,PrecipitationIn,Events,Conditions,WindDirDegrees,DateUTC
12:55 AM,36.0,30.9,82,30.13,10.0,ESE,8.1,19.6,N/A,,Clear,120,2013-01-11 05:55:00
1:55 AM,36.0,30.9,82,30.07,10.0,ESE,11.5,-,N/A,,Clear,120,2013-01-11 06:55:00
2:55 AM,35.1,30.0,82,30.04,10.0,ESE,12.7,19.6,N/A,,Mostly Cloudy,120,2013-01-11 07:55:00
3:51 AM,35.6,30.2,81,29.97,10.0,ESE,11.5,21.9,0.00,Rain,Light Rain,120,2013-01-11 08:51:00
3:55 AM,35.1,30.0,82,29.99,10.0,ESE,11.5,21.9,0.00,Rain,Light Rain,110,2013-01-11 08:55:00
4:37 AM,35.1,30.9,85,29.92,6.0,ESE,12.7,20.7,0.01,Rain,Light Rain,110,2013-01-11 09:37:00
4:48 AM,34.0,30.9,89,29.91,5.0,ESE,13.8,23.0,0.01,Rain,Light Rain,110,2013-01-11 09:48:00
4:55 AM,34.0,30.9,89,29.93,5.0,ESE,12.7,20.7,0.02,Rain,Light Rain,120,2013-01-11 09:55:00
5:55 AM,35.1,32.0,89,29.88,5.0,ESE,10.4,18.4,0.06,Rain,Light Rain,120,2013-01-11 10:55:00
6:55 AM,36.0,33.1,89,29.85,5.0,SE,10.4,19.6,0.04,Rain,Light Rain,130,2013-01-11 11:55:00
7:55 AM,36.0,33.1,89,29.80,5.0,East,9.2,-,0.08,Rain,Light Rain,100,2013-01-11 12:55:00
8:17 AM,36.0,33.1,89,29.78,4.0,ESE,8.1,-,0.00,Rain,Light Rain,120,2013-01-11 13:17:00
8:55 AM,36.0,34.0,93,29.80,3.0,ESE,6.9,-,0.02,Rain,Light Rain,110,2013-01-11 13:55:00
9:03 AM,36.0,34.0,93,29.78,2.0,East,6.9,-,0.01,,Overcast,100,2013-01-11 14:03:00
9:11 AM,36.0,34.0,93,29.77,1.5,East,6.9,-,0.01,Rain,Light Rain,100,2013-01-11 14:11:00
9:22 AM,36.0,34.0,93,29.76,2.0,ESE,6.9,-,0.01,,Overcast,110,2013-01-11 14:22:00
9:52 AM,35.6,33.8,93,29.74,4.0,East,9.2,-,0.02,Rain,Light Rain,100,2013-01-11 14:52:00
9:55 AM,35.1,33.1,92,29.76,4.0,East,8.1,-,0.02,,Overcast,100,2013-01-11 14:55:00
10:55 AM,36.0,34.0,93,29.74,3.0,East,8.1,-,0.00,,Overcast,100,2013-01-11 15:55:00
11:55 AM,36.0,34.0,93,29.71,2.0,ESE,9.2,-,0.01,Rain,Light Rain,110,2013-01-11 16:55:00
12:09 PM,36.0,34.0,93,29.69,4.0,ESE,8.1,-,0.01,Rain,Light Rain,110,2013-01-11 17:09:00
12:26 PM,36.0,35.1,97,29.67,1.8,East,8.1,-,0.01,Rain,Light Rain,100,2013-01-11 17:26:00
12:45 PM,37.0,35.1,93,29.66,2.5,East,5.8,-,0.03,Rain,Light Rain,100,2013-01-11 17:45:00
12:52 PM,37.4,35.6,93,29.66,4.0,ESE,5.8,-,0.03,,Overcast,110,2013-01-11 17:52:00
12:55 PM,37.0,35.1,93,29.68,4.0,Variable,4.6,-,0.03,,Overcast,0,2013-01-11 17:55:00
1:55 PM,37.0,35.1,93,29.65,4.0,East,8.1,-,N/A,,Overcast,100,2013-01-11 18:55:00
2:20 PM,37.0,35.1,93,29.65,2.0,East,6.9,-,0.00,,Overcast,90,2013-01-11 19:20:00
2:30 PM,37.0,35.1,93,29.65,1.2,East,5.8,-,0.00,,Overcast,100,2013-01-11 19:30:00
2:46 PM,37.0,35.1,93,29.65,0.8,East,5.8,-,0.00,Rain,Light Rain,90,2013-01-11 19:46:00
2:55 PM,37.0,35.1,93,29.67,0.5,East,6.9,-,0.00,Fog-Rain,Light Rain,90,2013-01-11 19:55:00
3:55 PM,37.0,35.1,93,29.66,0.2,East,5.8,-,0.01,Fog,Fog,100,2013-01-11 20:55:00
4:55 PM,37.0,35.1,93,29.67,0.2,East,4.6,-,N/A,Fog,Fog,100,2013-01-11 21:55:00
5:55 PM,36.0,35.1,97,29.68,0.2,East,4.6,-,N/A,Fog,Fog,100,2013-01-11 22:55:00
6:55 PM,36.0,35.1,97,29.69,0.8,East,4.6,-,0.02,,Mist,100,2013-01-11 23:55:00
7:55 PM,37.0,35.1,93,29.69,0.5,ESE,6.9,-,N/A,Fog,Fog,120,2013-01-12 00:55:00
8:26 PM,37.0,35.1,93,29.69,1.0,SE,6.9,-,0.00,,Mist,130,2013-01-12 01:26:00
8:55 PM,36.0,35.1,97,29.70,0.8,ESE,3.5,-,0.01,,Mist,110,2013-01-12 01:55:00
9:55 PM,36.0,35.1,97,29.69,0.2,ESE,3.5,-,N/A,Fog,Fog,110,2013-01-12 02:55:00
10:55 PM,37.9,36.0,93,29.70,0.2,SE,5.8,-,N/A,Fog,Fog,130,2013-01-12 03:55:00
11:55 PM,37.9,36.0,93,29.70,0.8,ESE,6.9,-,0.01,,Mist,120,2013-01-12 04:55:00